This demonstration page uses our WeatherBlox Daily Observations layout. Learn more.

Left ArrowRight Arrow

53.62937, 11.41316

Hourly Observations for August 13, 2022

Temp ( °F °C ) Dew Point ( °F °C ) Humidity (%) Winds ( mph kmh ) Pressure ( in mb ) Visibility ( mi km ) Precip ( " mm )
12:20 am 00:20 Clear 63 17 55 13 77 77 VRB 1 2 30.12 1020 6 10 0.00 0.00
12:50 am 00:50 Clear 63 17 55 13 77 77 VRB 2 4 30.12 1020 6 10 0.00 0.00
1:20 am 01:20 Clear 59 15 55 13 88 88 E 5 7 30.12 1020 6 10 0.00 0.00
1:50 am 01:50 Clear 59 15 54 12 82 82 VRB 1 2 30.12 1020 6 10 0.00 0.00
2:20 am 02:20 Clear 59 15 55 13 88 88 Calm 30.12 1020 6 10 0.00 0.00
2:50 am 02:50 Clear 57 14 55 13 94 94 Calm 30.12 1020 6 10 0.00 0.00
3:20 am 03:20 Clear 57 14 55 13 94 94 Calm 30.12 1020 6 10 0.00 0.00
3:50 am 03:50 Clear 57 14 55 13 94 94 W 1 2 30.12 1020 6 10 0.00 0.00
4:20 am 04:20 Clear 57 14 55 13 94 94 Calm 30.12 1020 6 10 0.00 0.00
4:50 am 04:50 Clear 55 13 55 13 100 100 Calm 30.12 1020 6 10 0.00 0.00
5:20 am 05:20 Clear 55 13 55 13 100 100 Calm 30.12 1020 6 10 0.00 0.00
5:50 am 05:50 Mostly Clear 55 13 54 12 94 94 Calm 30.12 1020 6 10 0.00 0.00
6:20 am 06:20 Mostly Sunny 55 13 54 12 94 94 SSE 1 2 30.12 1020 6 10 0.00 0.00
6:50 am 06:50 Mostly Sunny 57 14 55 13 94 94 ENE 2 4 30.12 1020 6 10 0.00 0.00
7:20 am 07:20 Mostly Sunny 61 16 57 14 88 88 Calm 30.12 1020 6 10 0.00 0.00
7:50 am 07:50 Mostly Sunny 66 19 57 14 73 73 Calm 30.09 1019 6 10 0.00 0.00
8:20 am 08:20 Mostly Sunny 68 20 55 13 64 64 E 3 6 30.09 1019 6 10 0.00 0.00
8:50 am 08:50 Mostly Sunny 72 22 55 13 57 57 ENE 5 7 30.09 1019 6 10 0.00 0.00
9:20 am 09:20 Mostly Sunny 73 23 57 14 57 57 E 5 7 30.12 1020 6 10 0.00 0.00
9:50 am 09:50 Mostly Sunny 77 25 57 14 50 50 ESE 5 7 30.12 1020 6 10 0.00 0.00
10:20 am 10:20 Sunny with Patchy Fog 79 26 57 14 48 48 E 5 7 30.12 1020 6 10 0.00 0.00
10:50 am 10:50 Mostly Sunny 81 27 55 13 42 42 NE 6 9 30.12 1020 6 10 0.00 0.00
11:20 am 11:20 Mostly Sunny 81 27 55 13 42 42 E 7 11 30.12 1020 6 10 0.00 0.00
11:50 am 11:50 Mostly Sunny 82 28 55 13 40 40 ENE 7 11 30.12 1020 6 10 0.00 0.00
12:20 pm 12:20 Mostly Sunny 84 29 55 13 37 37 E 7 11 30.09 1019 6 10 0.00 0.00
12:50 pm 12:50 Mostly Sunny 84 29 55 13 37 37 ENE 9 15 30.09 1019 6 10 0.00 0.00
1:20 pm 13:20 Mostly Sunny 82 28 55 13 40 40 ENE 12 19 30.09 1019 6 10 0.00 0.00
1:50 pm 13:50 Mostly Sunny 82 28 55 13 40 40 NNE 12 19 30.09 1019 6 10 0.00 0.00
2:20 pm 14:20 Mostly Sunny 84 29 57 14 40 40 NNE 9 15 30.09 1019 6 10 0.00 0.00
2:50 pm 14:50 Mostly Sunny 82 28 57 14 42 42 NE 10 17 30.06 1018 6 10 0.00 0.00
3:20 pm 15:20 Mostly Sunny 84 29 57 14 40 40 NE 14 22 30.06 1018 6 10 0.00 0.00
3:50 pm 15:50 Mostly Sunny 84 29 59 15 43 43 NNE 12 19 30.06 1018 6 10 0.00 0.00
4:20 pm 16:20 Mostly Sunny 84 29 59 15 43 43 NE 14 22 30.06 1018 6 10 0.00 0.00
4:50 pm 16:50 Mostly Sunny 84 29 57 14 40 40 NE 13 20 30.06 1018 6 10 0.00 0.00
5:20 pm 17:20 Mostly Sunny 82 28 59 15 45 45 NE 12 19 30.06 1018 6 10 0.00 0.00
5:50 pm 17:50 Mostly Sunny 82 28 59 15 45 45 NE 12 19 30.03 1017 6 10 0.00 0.00
6:20 pm 18:20 Mostly Sunny 84 29 59 15 43 43 NE 12 19 30.03 1017 6 10 0.00 0.00
6:50 pm 18:50 Mostly Sunny 82 28 57 14 42 42 ENE 10 17 30.03 1017 6 10 0.00 0.00
7:20 pm 19:20 Mostly Sunny 81 27 57 14 45 45 ENE 13 20 30.03 1017 6 10 0.00 0.00
7:50 pm 19:50 Mostly Sunny 79 26 55 13 45 45 ENE 10 17 30.00 1016 6 10 0.00 0.00
8:20 pm 20:20 Mostly Sunny 79 26 57 14 48 48 NE 10 17 30.00 1016 6 10 0.00 0.00
8:50 pm 20:50 Mostly Sunny 77 25 59 15 54 54 ENE 8 13 30.00 1016 6 10 0.00 0.00
9:50 pm 21:50 Mostly Clear 72 22 61 16 69 69 NE 6 9 30.03 1017 6 10 0.00 0.00
10:20 pm 22:20 Clear 70 21 61 16 73 73 ENE 3 6 30.03 1017 6 10 0.00 0.00
10:50 pm 22:50 Clear 70 21 61 16 73 73 VRB 1 2 30.03 1017 6 10 0.00 0.00
11:20 pm 23:20 Clear 66 19 61 16 83 83 NE 1 2 30.03 1017 6 10 0.00 0.00
11:50 pm 23:50 Partly Cloudy 68 20 61 16 78 78 VRB 2 4 30.03 1017 6 10 0.00 0.00

Powered by AerisWeather